Track STARLINK-5552 now! 10-day predictions STARLINK-5552 is classified as:
1 56339U 23058Y 24325.67688023 -.00000033 00000-0 20644-5 0 9998 2 56339 97.6563 324.2876 0003699 76.7497 283.4139 15.01259799 87017